Track STARLINK-3896 now! 10-day predictions STARLINK-3896 is classified as:
1 52456U 22049F 22185.91667824 -.00716910 00000-0 -46800-1 0 9995 2 52456 53.2173 341.5483 0001516 64.1006 101.9185 15.10046173 1300